Weather observations for the past three days for
Mayport Naval Station - Adm David L. McDonald Field
Imperial (Metric)
Date Time (edt) Wind (mph) Vis. (mi.) Weather Sky Cond. Temperature (ºF) Relative Humidity Wind Chill (°F) Heat Index (°F) Pressure Precipitation (in)
Air Dwpt 6 hour altimeter (in) sea level (mb) 1 hr 3 hr 6 hr
Max. Min.
24 01:52 S 10 10.00 Fair CLR 82 73.9 89.1 82 77% 88 29.95 1014.0
24 00:52 SW 13 10.00 Overcast BKN070 BKN080 OVC100 82.9 73.9 74% 89 29.95 1014.2
23 23:52 SW 12 10.00 Fair CLR 84 73 70% 90 29.94 1013.9
23 22:52 S 10 10.00 Fair CLR 84.9 73.9 70% 92 29.93 1013.4
23 21:52 SW 8 10.00 Fair CLR 84.9 73.9 70% 92 29.92 1013.0
23 20:52 SW 13 G 22 10.00 Fair CLR 87.1 75 67% 97 29.9 1012.5
23 19:52 S 10 10.00 Fair CLR 89.1 73.9 96.1 84.9 61% 98 29.9 1012.4
23 18:52 S 12 10.00 Fair CLR 90 78.1 68% 105 29.91 1012.9
23 17:52 S 8 10.00 Thunderstorm OVC085 89.1 73 59% 97 29.9 1012.4
23 16:52 S 15 10.00 Mostly Cloudy FEW045 SCT060 BKN110 89.1 77 68% 102 29.9 1012.5
23 15:52 SE 20 G 30 10.00 Partly Cloudy SCT065 91 80.1 70% 109 29.92 1013.1
23 14:52 SE 18 10.00 Fair CLR 93.9 79 62% 112 29.94 1013.6
23 13:52 SE 18 10.00 A Few Clouds FEW050 95 79 60% 113 29.96 1014.4
23 12:52 Vrbl 6 10.00 Fair CLR 97 73.9 48% 108 29.97 1014.8
23 11:52 W 9 10.00 Fair CLR 93.9 73.9 52% 104 29.98 1015.2
23 10:52 SW 9 10.00 Fair CLR 91 75 59% 102 29.99 1015.3
23 09:52 SW 12 10.00 Fair CLR 88 75.9 68% 99 29.99 1015.5
23 08:52 SW 9 10.00 Fair CLR 84.9 77 77% 95 29.99 1015.5
23 07:52 SW 8 10.00 Fair CLR 0 0 0% 29.99 1015.6
23 06:52 S 5 10.00 Fair CLR 80.1 75.9 87% 85 29.99 1015.3
23 05:52 SW 7 10.00 Mostly Cloudy BKN100 81 75.9 85% 87 29.98 1015.0
23 04:52 SW 8 10.00 Overcast OVC095 80.1 75 85% 85 29.97 1014.7
23 03:52 S 7 10.00 Thunderstorm BKN080 0 0 0% 29.98 1015.3
23 02:52 SW 7 10.00 Fair CLR 80.1 75 85% 85 29.98 1015.2
23 01:52 SW 10 10.00 Partly Cloudy FEW060 SCT100 0 0 0% 30 1016.0
23 00:52 S 9 10.00 Fair CLR 0 0 0% 30.02 1016.6
22 23:52 SW 9 10.00 Partly Cloudy FEW075 SCT120 0 0 0% 30.01 1016.3
22 22:52 S 10 10.00 Overcast FEW049 BKN060 OVC075 0 0 0% 30.01 1016.3
22 21:52 S 6 10.00 Thunderstorm OVC060 0 0 0% 30.01 1016.3
22 20:52 S 8 10.00 Thunderstorm FEW034 BKN060 OVC085 79 73.9 85% 83 30 1015.9
22 19:52 S 10 8.00 Thunderstorm Light Rain FEW028 BKN049 OVC090 84.9 80.1 91 82 85% 99 29.98 1015.2
22 18:52 N 7 4.00 Thunderstorm Rain SCT010 BKN048 OVC100 84 78.1 82% 95 29.99 1015.4
22 17:52 SE 15 10.00 Thunderstorm CLR 86 75.9 72% 96 29.97 1014.8
22 16:52 SE 16 G 23 10.00 Mostly Cloudy BKN110 89.1 78.1 70% 103 29.98 1014.9
22 15:52 SE 12 10.00 Partly Cloudy FEW100 SCT120 89.1 77 68% 102 30 1015.8
22 14:52 E 12 10.00 Overcast FEW036 SCT044 OVC055 88 75.9 68% 99 30.02 1016.4
22 13:52 NW 3 10.00 Overcast BKN027 BKN033 OVC040 90 75 62% 100 30.04 1017.1
22 12:52 SW 16 G 24 10.00 Fair CLR 86 75 70% 95 30.01 1016.1
22 11:52 SW 5 10.00 Fair CLR 84 75 74% 92 30.07 1018.1
22 10:52 SE 3 10.00 Thunderstorm FEW110 82 75 79% 89 30.1 1019.2
22 09:52 W 7 10.00 Fair CLR 0 0 0% 30.08 1018.7
22 08:52 W 6 10.00 A Few Clouds FEW010 0 0 0% 30.07 1018.3
22 07:52 SW 9 10.00 Overcast FEW044 OVC100 81 75 82 80.1 82% 87 30.05 1017.5
22 06:52 SW 6 10.00 Partly Cloudy FEW080 SCT110 80.1 75 85% 85 30.05 1017.5
22 05:52 SW 7 10.00 Partly Cloudy SCT120 80.1 75 85% 85 30.02 1016.5
22 04:52 SW 8 10.00 A Few Clouds FEW110 80.1 75 85% 85 30.02 1016.4
22 03:52 SW 8 10.00 Fair CLR 81 75 82% 87 30.01 1016.2
22 02:52 SW 9 10.00 Overcast FEW023 OVC050 82 75 79% 89 30.03 1016.8
22 01:52 SW 14 10.00 Overcast FEW023 OVC041 82 75.9 86 82 82% 89 30.05 1017.3
22 00:52 S 14 10.00 Overcast SCT014 BKN020 OVC030 82 75.9 82% 89 30.05 1017.5
21 23:52 SW 13 10.00 Overcast OVC016 82.9 75.9 79% 91 30.04 1017.2
21 22:52 W 9 10.00 Mostly Cloudy BKN012 82.9 75.9 79% 91 30.03 1016.7
21 21:52 W 9 10.00 Mostly Cloudy BKN013 BKN043 BKN070 82.9 75.9 79% 91 30.02 1016.3
21 20:52 W 10 10.00 A Few Clouds FEW020 84 75 74% 92 30 1015.8
21 19:52 NW 10 10.00 Partly Cloudy SCT034 86 75.9 90 84 72% 96 30 1015.8
21 18:52 N 17 G 28 10.00 Mostly Cloudy SCT015 SCT035 BKN250 87.1 75.9 70% 98 30 1015.6
21 17:52 N 17 G 30 10.00 Mostly Cloudy SCT015 SCT035 BKN250 88 75.9 68% 99 30 1015.7
21 16:52 N 16 G 29 10.00 Mostly Cloudy FEW015 SCT035 BKN250 88 77 70% 100 30.01 1016.2
21 15:52 N 23 G 33 10.00 Overcast and Breezy SCT020 BKN035 OVC250 89.1 75.9 65% 100 30.03 1016.6
21 14:52 N 23 10.00 Overcast and Breezy SCT020 BKN040 OVC250 87.1 75.9 70% 98 30.06 1017.7
21 13:52 N 15 G 28 7.00 Light Rain BKN020 BKN040 OVC250 84.9 77 90 82.9 77% 95 30.08 1018.3
21 12:52 N 16 G 26 10.00 Mostly Cloudy SCT020 BKN040 BKN250 87.1 75 67% 97 30.1 1019.1
21 11:52 N 17 G 28 10.00 Mostly Cloudy SCT020 BKN040 BKN250 87.1 75 67% 97 30.1 1019.1
21 10:52 N 21 G 28 10.00 Mostly Cloudy and Breezy SCT020 BKN040 BKN250 89.1 75 63% 99 30.09 1018.8
21 09:52 N 21 10.00 Mostly Cloudy and Breezy SCT020 BKN040 BKN250 87.1 73.9 65% 95 30.1 1019.1
21 08:52 NE 21 10.00 Mostly Cloudy and Breezy SCT020 BKN040 BKN250 87.1 75 67% 97 30.1 1019.1
21 07:52 NE 20 10.00 Overcast FEW015 SCT040 OVC250 84 75 84 81 74% 92 30.1 1019.1
21 06:52 NE 22 10.00 Overcast and Breezy FEW015 SCT040 OVC250 82 75 79% 89 30.1 1019.1
21 05:52 NE 21 10.00 Overcast and Breezy SCT015 BKN040 OVC250 82.9 73.9 74% 89 30.09 1018.8
21 04:52 NE 23 10.00 Overcast and Breezy FEW015 FEW030 OVC042 81 73.9 79% 86 30.09 1018.7
21 03:52 NE 20 G 29 10.00 Mostly Cloudy SCT020 BKN026 BKN031 82.9 73.9 74% 89 30.1 1019.1
21 02:52 NE 21 10.00 Overcast and Breezy FEW021 BKN028 OVC035 82.9 73.9 74% 89 30.11 1019.6
Date Time (edt) Wind (mph) Vis. (mi.) Weather Sky Cond. Air Dwpt Max. Min. Relative Humidity Wind Chill (°F) Heat Index (°F) altimeter (in) sea level (mb) 1 hr 3 hr 6 hr
6 hour
Temperature (ºF) Pressure Precipitation (in)